Simultaneous Nadir Overpasses (SNOs) Predictions

Prediction of SNOs between NOAA-20 and NOAA-19 Satellite Orbit:

Table of predicted SNOs for the next 14.0 days since TLE Epoch: 7/31/2021
Index Date (NOAA-20) Time (NOAA-20) Lat,Lon (NOAA-20) SZA (NOAA-20 ) Date (NOAA-19) Time (NOAA-19) Lat,Lon (NOAA-19) SZA (NOAA-19 ) Distance(km) Time Diff (sec)
1 08/09/2021 13:21:29 77.86, -44.45 63.39 08/09/2021 13:20:19 77.85, -46.47 63.61 47.32 70
2 08/09/2021 14:12:18 -78.05, 121.93 116.35 08/09/2021 14:11:20 -78.03, 121.81 116.33 3.16 58
3 08/09/2021 15:03:04 78.07, -70.89 63.69 08/09/2021 15:02:14 78.05, -70.82 63.69 3.02 50
4 08/09/2021 15:53:48 -78.05, 96.53 116.33 08/09/2021 15:53:19 -78.08, 96.59 116.30 3.42 29
5 08/09/2021 16:44:34 78.08, -96.28 63.72 08/09/2021 16:44:14 78.06, -96.26 63.71 2.01 20
6 08/09/2021 17:35:18 -78.06, 71.13 116.30 08/09/2021 17:35:19 -78.09, 71.16 116.27 3.77 1
7 08/09/2021 18:26:04 78.08,-121.68 63.75 08/09/2021 18:26:14 78.07,-121.69 63.73 1.24 10
8 08/09/2021 19:16:49 -78.10, 45.52 116.22 08/09/2021 19:17:20 -78.06, 45.50 116.26 4.27 31
9 08/09/2021 20:07:34 78.09,-147.08 63.77 08/09/2021 20:08:14 78.08,-147.13 63.76 1.29 40
10 08/09/2021 20:58:19 -78.11, 20.13 116.19 08/09/2021 20:59:19 -78.11, 20.28 116.23 3.54 60
11 08/09/2021 21:49:04 78.09,-172.47 63.80 08/09/2021 21:50:14 78.09,-172.57 63.78 2.08 70



Historial Predications of SNOs between NOAA-20 and NOAA-19
